Find Starlink 31639

NORAD ID: 59261 Int'l Des: 2024-050 Owner: SPXS Country: US Constellation: starlink operational
LEOCIRCULAR

实时位置

正在加载3D地球...

关于 Starlink 31639

正在加载描述...

即将过境

Passes for default location (London). Set your location on the main map for personalized predictions.

高度历史

Loading altitude history...

两行轨道根数

1 59261U 24050H 26132.71903159 -.00000577 00000-0 -73573-5 0 9994
2 59261 53.1622 243.4516 0001212 72.2033 287.9099 15.30189617120358
Epoch: May 12, 2026 • Age: 16 hours

当前状态

高度 475.4 km
速度 7.63 km/s
星下点 14.64°N, 33.36°E
发射日期 Mar 19, 2024
运行时间 2.1 years
类型 internet

技术详情

分类 Payload
质量 730.00 kg
干质量 700.00 kg
总质量 730.00 kg
长度 0.30 m
直径 4.10 m
跨度 29.00 m
形状 Box + pan
制造商 SPXS
平台类型 Starlink V2M
阶段状态 In Orbit
所有者/国家 SPXS/US

Most Searched